Zurück zum Katalog

ONEWEB-0020

AktivKommunikationPO
NORAD 45133·PAYLOAD·🇬🇧 United Kingdom

Gestartet Feb 6, 2020 von Baikonur Cosmodrome

Loading…

Nächste Überflüge (nächste 24 Stunden)

TLE

AktuellSource: CelesTrak SupGP

Epoche: Sep 14, 2026, 17:06 UTC

1 45133C 20008C   26257.71299028  .00002496  00000+0  71571-2 0  2576
2 45133  87.8912  18.4451 0001733 101.2436  10.6923 13.10374272    19

Verfolge ONEWEB-0020 in Echtzeit mit AllMySat

Download on the App Store